TimeHST,TemperatureF,Dew PointF,Humidity,Sea Level PressureIn,VisibilityMPH,Wind Direction,Wind SpeedMPH,Gust SpeedMPH,PrecipitationIn,Events,Conditions,WindDirDegrees,DateUTC
12:56 AM,35.1,25.0,67,30.35,10.0,ENE,15.0,-,N/A,,Overcast,70,2013-11-27 10:56:00
1:56 AM,35.1,24.1,64,30.34,10.0,NE,11.5,-,N/A,,Overcast,50,2013-11-27 11:56:00
2:56 AM,35.1,26.1,70,30.33,10.0,NE,13.8,-,N/A,,Overcast,50,2013-11-27 12:56:00
3:56 AM,35.1,24.1,64,30.33,10.0,East,10.4,-,N/A,,Overcast,80,2013-11-27 13:56:00
4:56 AM,35.1,26.1,70,30.32,10.0,NE,16.1,23.0,N/A,,Overcast,50,2013-11-27 14:56:00
5:56 AM,35.1,25.0,67,30.31,10.0,ENE,6.9,-,N/A,,Overcast,70,2013-11-27 15:56:00
6:56 AM,35.1,25.0,67,30.32,10.0,ENE,11.5,18.4,N/A,,Overcast,70,2013-11-27 16:56:00
7:56 AM,35.1,25.0,67,30.33,10.0,ENE,12.7,-,N/A,,Overcast,70,2013-11-27 17:56:00
8:56 AM,35.1,25.0,67,30.33,10.0,NE,11.5,-,N/A,,Overcast,50,2013-11-27 18:56:00
9:56 AM,35.1,26.1,70,30.33,10.0,NE,12.7,-,N/A,,Overcast,40,2013-11-27 19:56:00
10:56 AM,35.1,26.1,70,30.34,10.0,NE,5.8,-,N/A,,Overcast,50,2013-11-27 20:56:00
11:56 AM,35.1,28.9,78,30.34,10.0,ENE,9.2,-,N/A,,Overcast,60,2013-11-27 21:56:00
12:02 PM,35.6,30.2,81,30.34,10.0,NE,9.2,-,N/A,,Overcast,50,2013-11-27 22:02:00
12:24 PM,33.8,30.2,87,30.34,6.2,Calm,Calm,-,N/A,,Overcast,0,2013-11-27 22:24:00
12:56 PM,36.0,28.0,73,30.33,10.0,NE,9.2,-,N/A,,Overcast,50,2013-11-27 22:56:00
1:56 PM,36.0,28.0,73,30.32,10.0,NNE,10.4,-,N/A,,Overcast,30,2013-11-27 23:56:00
2:03 PM,35.6,28.4,75,30.32,10.0,NE,10.4,-,N/A,,Overcast,40,2013-11-28 00:03:00
2:56 PM,36.0,28.9,76,30.31,10.0,NNE,12.7,-,N/A,,Overcast,30,2013-11-28 00:56:00
3:56 PM,37.0,27.0,67,30.30,10.0,NNE,10.4,-,N/A,,Overcast,30,2013-11-28 01:56:00
4:56 PM,36.0,28.9,76,30.31,10.0,NNE,9.2,-,N/A,,Overcast,30,2013-11-28 02:56:00
5:07 PM,33.8,28.4,81,30.31,6.2,NNE,12.7,-,N/A,Snow,Light Snow,20,2013-11-28 03:07:00
5:27 PM,33.8,30.2,87,30.30,6.2,NNE,8.1,-,N/A,Snow,Light Snow,30,2013-11-28 03:27:00
5:45 PM,35.6,30.2,81,30.30,10.0,NE,8.1,-,N/A,,Overcast,40,2013-11-28 03:45:00
5:56 PM,35.1,30.0,82,30.31,10.0,NE,8.1,-,N/A,,Overcast,40,2013-11-28 03:56:00
6:56 PM,34.0,30.0,85,30.32,10.0,North,6.9,-,N/A,,Overcast,10,2013-11-28 04:56:00
7:56 PM,34.0,27.0,75,30.32,9.0,ENE,10.4,-,N/A,Snow,Light Snow,70,2013-11-28 05:56:00
8:56 PM,35.1,30.0,82,30.33,10.0,NE,10.4,-,N/A,,Overcast,40,2013-11-28 06:56:00
9:56 PM,36.0,30.0,79,30.34,10.0,NE,11.5,-,N/A,,Overcast,50,2013-11-28 07:56:00
10:17 PM,35.6,28.4,75,30.33,10.0,NNE,12.7,-,N/A,,Overcast,30,2013-11-28 08:17:00
10:39 PM,35.6,30.2,81,30.34,10.0,ENE,9.2,-,N/A,,Overcast,60,2013-11-28 08:39:00
10:56 PM,36.0,28.9,76,30.35,10.0,NE,16.1,-,N/A,Rain,Light Rain,40,2013-11-28 08:56:00
11:18 PM,33.8,30.2,87,30.35,10.0,NNE,11.5,-,N/A,Rain,Light Rain,30,2013-11-28 09:18:00
11:44 PM,35.6,30.2,81,30.36,10.0,NE,11.5,-,N/A,,Overcast,40,2013-11-28 09:44:00
11:56 PM,36.0,28.9,76,30.36,10.0,NNE,13.8,-,N/A,,Overcast,30,2013-11-28 09:56:00